| time (UTC) | temp F | wind direction | speed knots | gust knots | rain 1hr in | rain 24hr in | rain mn in | humidity % | barometer mb |
| 20260507141355 | 62 | 127 | 0.0 | 3.5 | 0.00 | 0.00 | 0.00 | 53 | 1019.4 |
| 20260507140315 | 61 | 169 | 0.0 | 0.9 | 0.00 | 0.00 | 0.00 | 54 | 1019.3 |
| 20260507135315 | 60 | 147 | 1.7 | 2.6 | 0.00 | 0.00 | 0.00 | 55 | 1019.2 |
| 20260507134335 | 59 | 185 | 0.0 | 2.6 | 0.00 | 0.00 | 0.00 | 58 | 1019.3 |
| 20260507133315 | 58 | 198 | 0.0 | 2.6 | 0.00 | 0.00 | 0.00 | 62 | 1019.2 |
| 20260507132315 | 57 | 177 | 0.0 | 2.6 | 0.00 | 0.00 | 0.00 | 64 | 1019.2 |
| 20260507131315 | 55 | 180 | 0.0 | 0.0 | 0.00 | 0.00 | 0.00 | 67 | 1019.3 |
| 20260507130315 | 54 | 169 | 0.0 | 0.0 | 0.00 | 0.00 | 0.00 | 71 | 1019.0 |
| 20260507125314 | 52 | 340 | 0.0 | 0.9 | 0.00 | 0.00 | 0.00 | 75 | 1019.1 |
| 20260507124314 | 50 | 340 | 0.0 | 0.9 | 0.00 | 0.00 | 0.00 | 83 | 1019.0 |
| 20260507123314 | 48 | 340 | 0.0 | 0.0 | 0.00 | 0.00 | 0.00 | 85 | 1018.9 |
| 20260507122314 | 47 | 282 | 0.0 | 0.0 | 0.00 | 0.00 | 0.00 | 85 | 1018.9 |
| 20260507121314 | 46 | 282 | 0.0 | 0.0 | 0.00 | 0.00 | 0.00 | 86 | 1018.8 |
| 20260507120314 | 46 | 282 | 0.0 | 0.0 | 0.00 | 0.00 | 0.00 | 86 | 1018.7 |
| 20260507115354 | 45 | 282 | 0.0 | 0.0 | 0.00 | 0.00 | 0.00 | 86 | 1018.7 |
| 20260507114313 | 45 | 282 | 0.0 | 0.0 | 0.00 | 0.00 | 0.00 | 86 | 1018.6 |
| 20260507113313 | 45 | 282 | 0.0 | 0.0 | 0.00 | 0.00 | 0.00 | 86 | 1018.6 |
| 20260507112313 | 45 | 282 | 0.0 | 0.0 | 0.00 | 0.00 | 0.00 | 86 | 1018.6 |
| 20260507111313 | 45 | 282 | 0.0 | 0.0 | 0.00 | 0.00 | 0.00 | 85 | 1018.4 |
| 20260507110313 | 45 | 282 | 0.0 | 0.0 | 0.00 | 0.00 | 0.00 | 86 | 1018.3 |
| 20260507105313 | 45 | 282 | 0.0 | 0.0 | 0.00 | 0.00 | 0.00 | 85 | 1018.2 |
| 20260507104313 | 45 | 282 | 0.0 | 0.0 | 0.00 | 0.00 | 0.00 | 84 | 1018.3 |
| 20260507103312 | 45 | 282 | 0.0 | 0.0 | 0.00 | 0.00 | 0.00 | 85 | 1018.0 |
| 20260507102333 | 45 | 282 | 0.0 | 0.0 | 0.00 | 0.00 | 0.00 | 84 | 1018.2 |
| 20260507101332 | 45 | 282 | 0.0 | 0.0 | 0.00 | 0.00 | 0.00 | 83 | 1018.2 |
| 20260507100312 | 45 | 282 | 0.0 | 0.0 | 0.00 | 0.00 | 0.00 | 83 | 1018.2 |
| 20260507095312 | 45 | 282 | 0.0 | 0.0 | 0.00 | 0.00 | 0.00 | 81 | 1018.0 |
| 20260507094312 | 45 | 282 | 0.0 | 0.0 | 0.00 | 0.00 | 0.00 | 81 | 1018.0 |
| 20260507093311 | 45 | 282 | 0.0 | 0.0 | 0.00 | 0.00 | 0.00 | 82 | 1018.0 |
| 20260507092311 | 46 | 282 | 0.0 | 0.0 | 0.00 | 0.00 | 0.00 | 82 | 1017.7 |
| 20260507091312 | 46 | 282 | 0.0 | 0.0 | 0.00 | 0.00 | 0.00 | 81 | 1017.9 |
| 20260507090331 | 46 | 282 | 0.0 | 0.0 | 0.00 | 0.00 | 0.00 | 81 | 1018.1 |
| 20260507085331 | 46 | 282 | 0.0 | 0.0 | 0.00 | 0.00 | 0.00 | 81 | 1018.2 |
| 20260507084311 | 47 | 282 | 0.0 | 0.0 | 0.00 | 0.00 | 0.00 | 80 | 1018.3 |
| 20260507083311 | 47 | 282 | 0.0 | 0.0 | 0.00 | 0.00 | 0.00 | 80 | 1018.6 |
| 20260507082331 | 46 | 282 | 0.0 | 0.0 | 0.00 | 0.00 | 0.00 | 81 | 1018.3 |
| 20260507081311 | 46 | 282 | 0.0 | 0.0 | 0.00 | 0.00 | 0.00 | 81 | 1018.0 |
| 20260507080311 | 47 | 282 | 0.0 | 0.0 | 0.00 | 0.00 | 0.00 | 81 | 1018.2 |
| 20260507075311 | 47 | 282 | 0.0 | 0.0 | 0.00 | 0.00 | 0.00 | 81 | 1018.0 |
| 20260507074310 | 47 | 282 | 0.0 | 0.0 | 0.00 | 0.00 | 0.00 | 80 | 1018.2 |
| 20260507073310 | 47 | 282 | 0.0 | 0.0 | 0.00 | 0.00 | 0.00 | 80 | 1018.2 |
| 20260507072310 | 47 | 282 | 0.0 | 0.0 | 0.00 | 0.00 | 0.00 | 79 | 1018.2 |
| 20260507071310 | 48 | 282 | 0.0 | 0.0 | 0.00 | 0.00 | 0.00 | 78 | 1018.3 |
| 20260507070310 | 48 | 282 | 0.0 | 0.0 | 0.00 | 0.00 | 0.00 | 77 | 1018.4 |
| 20260507065310 | 48 | 282 | 0.0 | 0.0 | 0.00 | 0.00 | 0.00 | 76 | 1018.6 |
| 20260507064309 | 49 | 282 | 0.0 | 0.0 | 0.00 | 0.00 | 0.00 | 75 | 1018.6 |
| 20260507063309 | 50 | 282 | 0.0 | 0.0 | 0.00 | 0.00 | 0.00 | 73 | 1018.7 |
| 20260507062429 | 50 | 282 | 0.0 | 0.9 | 0.00 | 0.00 | 0.00 | 72 | 1018.5 |
| 20260507061329 | 50 | 282 | 0.0 | 0.9 | 0.00 | 0.00 | 0.00 | 70 | 1018.4 |
| 20260507060309 | 50 | 282 | 0.0 | 0.9 | 0.00 | 0.00 | 0.00 | 70 | 1018.3 |
| 20260507055309 | 51 | 282 | 0.0 | 0.0 | 0.00 | 0.00 | 0.00 | 69 | 1018.2 |
| 20260507054309 | 51 | 282 | 0.0 | 0.0 | 0.00 | 0.00 | 0.00 | 67 | 1018.3 |
| 20260507053309 | 52 | 282 | 0.0 | 0.0 | 0.00 | 0.00 | 0.00 | 66 | 1018.3 |
| 20260507052308 | 53 | 282 | 0.9 | 2.6 | 0.00 | 0.00 | 0.00 | 64 | 1018.2 |
| 20260507051308 | 53 | 316 | 1.7 | 2.6 | 0.00 | 0.00 | 0.00 | 62 | 1018.2 |
| 20260507050308 | 54 | 9 | 0.0 | 0.0 | 0.00 | 0.00 | 0.00 | 61 | 1018.1 |
| 20260507045308 | 54 | 355 | 1.7 | 2.6 | 0.00 | 0.00 | 0.00 | 60 | 1017.9 |
| 20260507044308 | 54 | 360 | 0.9 | 2.6 | 0.00 | 0.00 | 0.00 | 61 | 1018.0 |
| 20260507043308 | 54 | 22 | 0.9 | 2.6 | 0.00 | 0.00 | 0.00 | 60 | 1018.0 |
| 20260507042307 | 54 | 15 | 2.6 | 2.6 | 0.00 | 0.00 | 0.00 | 61 | 1018.1 |
| 20260507041307 | 54 | 21 | 1.7 | 2.6 | 0.00 | 0.00 | 0.00 | 61 | 1017.9 |
| 20260507040307 | 54 | 13 | 0.0 | 2.6 | 0.00 | 0.00 | 0.00 | 62 | 1018.0 |
| 20260507035307 | 54 | 5 | 1.7 | 2.6 | 0.00 | 0.00 | 0.00 | 62 | 1018.1 |
| 20260507034327 | 54 | 14 | 2.6 | 2.6 | 0.00 | 0.00 | 0.00 | 63 | 1018.0 |
| 20260507033327 | 54 | 28 | 0.9 | 1.7 | 0.00 | 0.00 | 0.00 | 63 | 1018.0 |
| 20260507032327 | 54 | 32 | 0.9 | 2.6 | 0.00 | 0.00 | 0.00 | 62 | 1017.9 |
| 20260507031307 | 54 | 22 | 0.9 | 2.6 | 0.00 | 0.00 | 0.00 | 62 | 1017.7 |
| 20260507030306 | 54 | 355 | 0.0 | 2.6 | 0.00 | 0.00 | 0.00 | 62 | 1017.7 |
| 20260507025307 | 55 | 9 | 0.9 | 3.5 | 0.00 | 0.00 | 0.00 | 62 | 1017.6 |
| 20260507024306 | 55 | 11 | 0.0 | 3.5 | 0.00 | 0.00 | 0.00 | 61 | 1017.5 |
| 20260507023306 | 56 | 26 | 0.9 | 1.7 | 0.00 | 0.00 | 0.00 | 60 | 1017.5 |
| 20260507022306 | 56 | 72 | 0.0 | 2.6 | 0.00 | 0.00 | 0.00 | 60 | 1017.4 |
| 20260507021306 | 56 | 325 | 0.0 | 2.6 | 0.00 | 0.00 | 0.00 | 59 | 1017.3 |
| 20260507020306 | 57 | 323 | 0.0 | 0.9 | 0.00 | 0.00 | 0.00 | 59 | 1017.3 |
| 20260507015306 | 57 | 5 | 1.7 | 2.6 | 0.00 | 0.00 | 0.00 | 58 | 1017.0 |
| 20260507014306 | 58 | 360 | 0.0 | 1.7 | 0.00 | 0.00 | 0.00 | 57 | 1017.0 |
| 20260507013305 | 58 | 5 | 1.7 | 1.7 | 0.00 | 0.00 | 0.00 | 56 | 1016.8 |
| 20260507012306 | 59 | 11 | 0.0 | 2.6 | 0.00 | 0.00 | 0.00 | 55 | 1016.8 |
| 20260507011305 | 59 | 340 | 0.9 | 2.6 | 0.00 | 0.00 | 0.00 | 54 | 1016.7 |
| 20260507010305 | 60 | 355 | 1.7 | 2.6 | 0.00 | 0.00 | 0.00 | 53 | 1016.6 |
| 20260507005306 | 60 | 24 | 2.6 | 3.5 | 0.00 | 0.00 | 0.00 | 52 | 1016.5 |
| 20260507004305 | 61 | 53 | 1.7 | 3.5 | 0.00 | 0.00 | 0.00 | 51 | 1016.2 |
| 20260507003325 | 61 | 22 | 0.0 | 2.6 | 0.00 | 0.00 | 0.00 | 50 | 1016.2 |
| 20260507002306 | 62 | 40 | 0.9 | 6.1 | 0.00 | 0.00 | 0.00 | 50 | 1016.1 |
| 20260507001304 | 62 | 9 | 1.7 | 6.1 | 0.00 | 0.00 | 0.00 | 48 | 1016.1 |
| 20260507000306 | 62 | 51 | 0.0 | 2.6 | 0.00 | 0.00 | 0.00 | 48 | 1015.9 |
| 20260506235306 | 63 | 5 | 2.6 | 8.7 | 0.00 | 0.00 | 0.00 | 46 | 1016.0 |
| 20260506234304 | 63 | 15 | 1.7 | 6.1 | 0.00 | 0.00 | 0.00 | 47 | 1015.8 |
| 20260506233304 | 64 | 39 | 1.7 | 2.6 | 0.00 | 0.00 | 0.00 | 47 | 1015.8 |
| 20260506232306 | 64 | 23 | 3.5 | 7.0 | 0.00 | 0.00 | 0.00 | 45 | 1015.9 |
| 20260506231303 | 64 | 32 | 2.6 | 7.0 | 0.00 | 0.00 | 0.00 | 47 | 1015.6 |
| 20260506230303 | 64 | 36 | 2.6 | 5.2 | 0.00 | 0.00 | 0.00 | 47 | 1015.5 |
| 20260506225305 | 64 | 61 | 2.6 | 8.7 | 0.00 | 0.00 | 0.00 | 47 | 1015.5 |
| 20260506224323 | 64 | 49 | 1.7 | 8.7 | 0.00 | 0.00 | 0.00 | 50 | 1015.3 |
| 20260506223303 | 64 | 355 | 2.6 | 4.3 | 0.00 | 0.00 | 0.00 | 48 | 1015.4 |
| 20260506222323 | 64 | 79 | 7.0 | 8.7 | 0.00 | 0.00 | 0.00 | 52 | 1015.3 |
| 20260506221323 | 63 | 342 | 2.6 | 7.8 | 0.00 | 0.00 | 0.00 | 49 | 1015.2 |
| 20260506220303 | 63 | 331 | 2.6 | 7.8 | 0.00 | 0.00 | 0.00 | 49 | 1015.2 |
| 20260506215305 | 62 | 44 | 7.0 | 10.4 | 0.00 | 0.00 | 0.00 | 49 | 1015.0 |
| 20260506214302 | 63 | 108 | 2.6 | 10.4 | 0.00 | 0.00 | 0.00 | 49 | 1015.1 |
| 20260506213302 | 62 | 57 | 2.6 | 2.6 | 0.00 | 0.00 | 0.00 | 53 | 1015.3 |
| 20260506212305 | 63 | 360 | 3.5 | 8.7 | 0.00 | 0.00 | 0.00 | 50 | 1015.2 |
| 20260506211302 | 63 | 55 | 0.0 | 7.8 | 0.00 | 0.00 | 0.00 | 50 | 1015.2 |
| 20260506210342 | 63 | 303 | 2.6 | 7.0 | 0.00 | 0.00 | 0.00 | 50 | 1015.3 |
| 20260506205305 | 63 | 29 | 3.5 | 7.0 | 0.00 | 0.00 | 0.00 | 49 | 1015.5 |
| 20260506204301 | 63 | 30 | 0.9 | 5.2 | 0.00 | 0.00 | 0.00 | 52 | 1015.4 |
| 20260506203301 | 63 | 32 | 1.7 | 5.2 | 0.00 | 0.00 | 0.00 | 51 | 1015.7 |
| 20260506202301 | 63 | 30 | 2.6 | 8.7 | 0.00 | 0.00 | 0.00 | 55 | 1015.8 |
| 20260506201301 | 63 | 71 | 2.6 | 7.0 | 0.00 | 0.00 | 0.00 | 51 | 1016.1 |
| 20260506200321 | 63 | 346 | 0.9 | 3.5 | 0.00 | 0.00 | 0.00 | 52 | 1016.3 |
| 20260506195321 | 64 | 345 | 1.7 | 8.7 | 0.00 | 0.00 | 0.00 | 51 | 1016.0 |
| 20260506194301 | 64 | 41 | 0.9 | 8.7 | 0.00 | 0.00 | 0.00 | 51 | 1015.8 |
| 20260506193300 | 63 | 51 | 2.6 | 8.7 | 0.00 | 0.00 | 0.00 | 54 | 1016.1 |
| 20260506192300 | 62 | 342 | 4.3 | 9.6 | 0.00 | 0.00 | 0.00 | 53 | 1016.4 |
| 20260506191320 | 62 | 40 | 1.7 | 9.6 | 0.00 | 0.00 | 0.00 | 54 | 1016.4 |
| 20260506190300 | 62 | 94 | 2.6 | 6.1 | 0.00 | 0.00 | 0.00 | 56 | 1016.7 |
| 20260506185300 | 61 | 187 | 0.9 | 9.6 | 0.00 | 0.00 | 0.00 | 56 | 1016.7 |
| 20260506184300 | 62 | 67 | 1.7 | 7.8 | 0.00 | 0.00 | 0.00 | 54 | 1016.6 |
| 20260506183320 | 62 | 114 | 1.7 | 3.5 | 0.00 | 0.00 | 0.00 | 53 | 1016.8 |
| 20260506182300 | 62 | 223 | 2.6 | 7.8 | 0.00 | 0.00 | 0.00 | 54 | 1016.9 |
| 20260506181259 | 62 | 77 | 5.2 | 7.0 | 0.00 | 0.00 | 0.00 | 55 | 1017.0 |
| 20260506180319 | 61 | 349 | 3.5 | 5.2 | 0.00 | 0.00 | 0.00 | 57 | 1017.1 |
| 20260506175259 | 61 | 321 | 6.1 | 8.7 | 0.00 | 0.00 | 0.00 | 57 | 1017.1 |
| 20260506174259 | 61 | 5 | 6.1 | 8.7 | 0.00 | 0.00 | 0.00 | 56 | 1017.2 |
| 20260506173259 | 61 | 71 | 2.6 | 7.0 | 0.00 | 0.00 | 0.00 | 56 | 1017.5 |
| 20260506172259 | 61 | 53 | 2.6 | 8.7 | 0.00 | 0.00 | 0.00 | 58 | 1017.8 |
| 20260506171319 | 61 | 5 | 3.5 | 7.8 | 0.00 | 0.00 | 0.00 | 55 | 1018.0 |
| 20260506170258 | 59 | 68 | 1.7 | 7.0 | 0.00 | 0.00 | 0.00 | 57 | 1018.2 |
| 20260506165258 | 58 | 66 | 2.6 | 7.8 | 0.00 | 0.00 | 0.00 | 60 | 1018.4 |
| 20260506164258 | 58 | 88 | 2.6 | 7.8 | 0.00 | 0.00 | 0.00 | 62 | 1018.3 |
| 20260506163258 | 58 | 61 | 7.0 | 7.0 | 0.00 | 0.00 | 0.00 | 60 | 1018.0 |
| 20260506162258 | 58 | 275 | 0.0 | 7.0 | 0.00 | 0.00 | 0.00 | 63 | 1018.1 |
| 20260506161258 | 56 | 35 | 1.7 | 7.0 | 0.00 | 0.00 | 0.00 | 62 | 1018.1 |
| 20260506160258 | 56 | 49 | 2.6 | 3.5 | 0.00 | 0.00 | 0.00 | 63 | 1018.1 |
| 20260506155338 | 56 | 336 | 2.6 | 7.8 | 0.00 | 0.00 | 0.00 | 63 | 1017.8 |
| 20260506154257 | 56 | 17 | 2.6 | 7.8 | 0.00 | 0.00 | 0.00 | 63 | 1017.5 |
| 20260506153257 | 55 | 37 | 1.7 | 3.5 | 0.00 | 0.00 | 0.00 | 64 | 1017.3 |
| 20260506152257 | 54 | 94 | 2.6 | 8.7 | 0.00 | 0.00 | 0.00 | 62 | 1016.7 |
| 20260506151257 | 54 | 11 | 6.1 | 8.7 | 0.00 | 0.00 | 0.00 | 64 | 1016.4 |
| 20260506150304 | 54 | 65 | 2.6 | 7.0 | 0.00 | 0.00 | 0.00 | 64 | 1016.3 |
| 20260506145257 | 53 | 65 | 2.6 | 8.7 | 0.00 | 0.00 | 0.00 | 65 | 1016.5 |
| 20260506144257 | 53 | 12 | 3.5 | 8.7 | 0.00 | 0.00 | 0.00 | 66 | 1016.5 |
| 20260506143336 | 53 | 48 | 8.7 | 8.7 | 0.00 | 0.00 | 0.00 | 67 | 1016.7 |
| 20260506142256 | 52 | 71 | 2.6 | 11.3 | 0.00 | 0.00 | 0.00 | 68 | 1016.3 |